TimeCST,TemperatureF,Dew PointF,Humidity,Sea Level PressureIn,VisibilityMPH,Wind Direction,Wind SpeedMPH,Gust SpeedMPH,PrecipitationIn,Events,Conditions,WindDirDegrees,DateUTC
12:52 AM,37.9,35.1,89,30.18,8.0,North,4.6,-,N/A,,Clear,360,2012-11-04 05:52:00
1:52 AM,37.0,35.1,93,30.19,5.0,NNW,6.9,-,N/A,,Clear,340,2012-11-04 06:52:00
1:52 AM,36.0,34.0,93,30.20,3.0,NNW,4.6,-,N/A,,Clear,330,2012-11-04 07:52:00
2:52 AM,35.1,33.1,92,30.20,3.0,NNW,4.6,-,N/A,,Clear,340,2012-11-04 08:52:00
2:59 AM,33.8,33.8,100,30.19,2.5,NNW,4.6,-,N/A,,Clear,330,2012-11-04 08:59:00
3:52 AM,34.0,32.0,92,30.20,2.0,NNW,6.9,-,N/A,,Clear,340,2012-11-04 09:52:00
4:40 AM,33.8,32.0,93,30.21,3.0,Calm,Calm,-,N/A,,Clear,0,2012-11-04 10:40:00
4:52 AM,33.1,32.0,96,30.22,2.5,NNW,3.5,-,N/A,,Clear,340,2012-11-04 10:52:00
5:52 AM,32.0,30.0,92,30.22,2.0,Calm,Calm,-,N/A,,Clear,0,2012-11-04 11:52:00
6:04 AM,32.0,30.2,93,30.22,1.8,NNW,4.6,-,N/A,,Clear,330,2012-11-04 12:04:00
6:19 AM,30.2,28.4,93,30.22,0.8,NNW,5.8,-,N/A,,Clear,330,2012-11-04 12:19:00
6:28 AM,30.2,30.2,100,30.22,1.2,NNW,4.6,-,N/A,,Clear,340,2012-11-04 12:28:00
6:52 AM,32.0,30.0,92,30.24,1.5,NNW,4.6,-,N/A,,Clear,340,2012-11-04 12:52:00
7:26 AM,33.8,30.2,87,30.24,2.0,NNW,4.6,-,N/A,,Clear,330,2012-11-04 13:26:00
7:52 AM,35.1,34.0,96,30.25,3.0,NNW,3.5,-,N/A,,Clear,330,2012-11-04 13:52:00
8:52 AM,39.0,35.1,86,30.25,6.0,Calm,Calm,-,N/A,,Clear,0,2012-11-04 14:52:00
9:52 AM,44.1,34.0,68,30.26,10.0,Calm,Calm,-,N/A,,Clear,0,2012-11-04 15:52:00
10:52 AM,48.0,34.0,58,30.25,10.0,Variable,4.6,-,N/A,,Clear,0,2012-11-04 16:52:00
11:52 AM,50.0,33.1,52,30.23,10.0,Variable,4.6,-,N/A,,Clear,0,2012-11-04 17:52:00
12:52 PM,51.1,33.1,50,30.20,10.0,Variable,5.8,-,N/A,,Clear,0,2012-11-04 18:52:00
1:52 PM,52.0,30.9,45,30.19,10.0,NNW,8.1,-,N/A,,Clear,340,2012-11-04 19:52:00
2:52 PM,53.1,30.9,43,30.19,10.0,NNW,8.1,-,N/A,,Clear,340,2012-11-04 20:52:00
3:52 PM,52.0,30.9,45,30.19,10.0,North,3.5,-,N/A,,Clear,360,2012-11-04 21:52:00
4:52 PM,50.0,30.9,48,30.18,10.0,Calm,Calm,-,N/A,,Clear,0,2012-11-04 22:52:00
5:52 PM,45.0,34.0,65,30.18,10.0,Calm,Calm,-,N/A,,Clear,0,2012-11-04 23:52:00
6:52 PM,42.1,33.1,70,30.18,10.0,Calm,Calm,-,N/A,,Mostly Cloudy,0,2012-11-05 00:52:00
7:52 PM,39.9,34.0,79,30.18,10.0,Calm,Calm,-,N/A,,Clear,0,2012-11-05 01:52:00
8:52 PM,39.0,33.1,79,30.19,10.0,Calm,Calm,-,N/A,,Scattered Clouds,0,2012-11-05 02:52:00
9:52 PM,37.0,34.0,89,30.19,-9999.0,Calm,Calm,-,N/A,,Mostly Cloudy,0,2012-11-05 03:52:00
10:52 PM,35.1,32.0,89,30.19,10.0,Calm,Calm,-,N/A,,Clear,0,2012-11-05 04:52:00